Torna al catalogo

IRIDIUM 148

AttivoComunicazioniPO
NORAD 43255·PAYLOAD·🇺🇸 United States

Lanciato Mar 30, 2018 da Vandenberg Space Force Base

Loading…

Prossimi Passaggi (prossime 24 ore)

TLE

AggiornatoSource: CelesTrak SupGP

Epoca: Sep 14, 2026, 10:12 UTC

1 43255C 18030G   26257.42534722  .00004718  00000+0  16869-2 0  2570
2 43255  86.3913 253.1325 0002323  92.7004 163.4530 14.34213500    10

Traccia IRIDIUM 148 in tempo reale con AllMySat

Download on the App Store